Wind_Speed
154 154 154 154 154 153 153 153 152 152 152 152 152 152 151 151 151 150 150 150 150 150 149 149 149 149 149 149 149 150 150 150 149 148 148 148 147 147 147 147 146 144 143 141 141 140 139 138 138 137 136 135 135 134 133 132 131 129 128 128 128 128 127
155 155 155 155 155 155 154 154 154 154 153 153 153 153 153 152 152 152 152 152 152 152 151 151 151 150 150 149 149 150 150 150 149 148 148 148 148 148 148 147 146 145 144 143 142 141 141 140 139 139 138 137 136 135 135 134 133 132 130 129 129 129 129
156 156 155 155 155 155 155 154 154 154 154 154 153 153 153 153 153 152 152 152 153 153 153 153 153 152 152 151 151 151 151 151 150 150 149 149 149 149 149 148 148 147 146 145 144 143 142 141 141 140 139 139 138 137 136 135 134 133 132 131 130 129 129
155 155 155 155 154 154 154 154 154 153 153 153 153 153 153 152 152 152 152 151 151 152 152 153 153 153 152 152 152 152 152 151 151 150 150 150 150 150 150 149 149 148 147 146 145 144 143 142 141 140 140 139 139 138 137 136 135 134 133 132 131 130 130
153 153 153 153 153 153 153 152 152 152 152 152 151 151 151 151 151 151 150 150 150 149 150 150 151 151 151 151 151 151 151 151 150 150 149 149 149 149 149 149 149 149 148 147 146 144 143 142 141 140 139 139 139 138 137 137 136 136 135 134 133 132 131
147 147 147 147 148 148 148 148 149 149 149 149 149 149 149 149 149 148 148 148 147 147 147 147 147 147 147 147 148 148 149 149 149 149 148 148 147 147 147 148 148 148 147 147 146 144 143 142 141 140 140 139 139 138 138 138 138 137 137 136 135 135 134
141 141 141 141 141 142 142 143 143 143 144 144 144 145 145 145 145 145 145 145 145 144 144 144 145 144 144 144 145 145 146 146 147 147 147 146 145 145 145 145 145 146 146 145 144 143 142 141 141 140 140 140 139 139 139 139 139 138 138 138 137 137 136
135 136 136 136 136 136 137 137 138 139 139 140 140 141 142 143 143 143 143 143 143 143 143 143 143 143 143 144 144 145 146 146 146 146 146 146 145 145 144 144 144 144 144 143 143 142 141 140 140 140 140 140 139 139 139 139 139 139 138 138 138 138 138
128 129 129 129 129 130 130 131 131 132 133 134 134 136 137 138 139 139 140 140 140 140 141 141 141 142 142 142 143 144 146 146 147 147 147 147 147 146 145 145 144 144 143 143 142 141 141 140 140 140 140 140 140 139 139 139 139 139 139 139 139 139 139
122 122 122 122 122 122 123 123 124 124 125 126 126 128 130 131 132 133 133 134 135 135 135 135 136 137 137 138 139 140 142 143 144 145 145 146 146 146 145 145 145 144 144 144 143 142 142 141 141 141 141 141 141 141 141 140 140 140 140 140 140 139 139
116 116 116 117 117 117 117 117 117 118 119 119 120 121 123 124 125 126 126 127 128 128 129 129 130 130 131 131 133 134 135 136 137 138 139 140 141 142 141 141 141 141 140 141 141 140 140 139 139 139 140 140 141 141 141 141 140 140 140 140 140 140 140
110 111 111 111 112 112 112 112 112 113 113 114 114 115 116 119 120 120 120 121 121 122 122 123 124 124 125 126 127 128 129 130 131 132 133 134 135 135 135 135 134 134 134 134 134 134 134 134 133 134 134 135 136 137 137 137 137 137 137 138 138 138 138
106 106 107 107 107 107 107 107 107 108 108 109 109 109 110 113 116 116 115 115 116 116 117 118 119 119 120 120 121 122 123 124 125 126 127 128 129 129 129 129 128 128 128 128 128 128 128 127 127 127 128 129 130 131 131 131 132 132 132 132 133 133 133
102 103 103 103 104 104 104 104 104 104 104 104 105 104 104 108 112 112 111 110 111 111 112 112 113 114 115 115 116 117 118 119 120 120 121 122 123 124 123 123 123 123 123 122 122 122 122 122 122 122 123 123 125 126 126 126 127 127 127 127 128 128 129
99 99 100 100 100 101 101 101 101 101 101 101 101 101 100 103 107 108 107 107 107 107 107 107 108 109 110 111 112 112 113 114 115 115 116 117 118 118 118 118 118 118 117 117 117 118 118 118 118 118 118 119 120 121 122 122 123 123 124 124 124 125 125
95 96 97 97 97 98 98 98 98 98 98 98 98 98 98 100 104 105 105 106 106 104 104 104 104 106 106 107 108 109 109 110 110 111 112 112 113 113 113 113 113 113 113 113 113 113 114 113 113 113 113 114 115 116 117 118 119 120 120 120 120 121 122
92 93 94 94 94 94 95 95 95 95 95 96 95 95 95 97 100 103 104 104 104 103 102 102 102 102 104 104 105 106 106 107 107 107 108 108 108 109 109 109 109 109 109 109 108 108 109 109 108 109 109 110 111 112 113 114 115 116 117 117 117 118 119
89 90 91 92 92 92 92 93 93 92 92 93 93 93 93 94 97 99 101 102 103 102 101 101 100 100 101 102 103 104 104 104 104 104 104 105 105 106 106 106 106 106 106 105 104 104 104 105 105 105 106 106 107 108 109 110 111 113 114 115 115 116 117
86 87 88 89 89 89 90 90 90 90 89 90 90 90 90 91 93 96 98 99 101 101 100 99 98 98 98 100 101 101 101 101 101 101 101 102 103 104 104 104 104 104 104 103 101 101 101 102 102 103 103 103 104 105 106 106 108 110 112 113 113 114 114
84 85 85 86 86 87 87 87 88 87 87 86 87 87 87 88 90 92 94 95 98 99 98 97 96 96 96 97 98 99 99 99 99 98 98 100 101 101 101 101 102 103 102 100 100 99 99 99 99 100 100 101 102 102 103 104 106 108 109 111 112 112 113
82 82 83 83 84 84 84 84 85 85 85 84 84 84 85 86 88 89 90 92 94 95 96 95 94 94 94 94 95 96 97 97 97 96 97 99 99 99 99 100 101 101 99 98 98 98 98 97 97 98 98 99 99 100 101 103 105 106 107 108 110 111 112
79 80 80 81 82 82 82 82 82 83 83 82 81 82 82 83 85 86 88 89 90 92 93 93 93 93 92 92 92 93 94 94 94 94 95 96 96 96 97 98 99 98 98 97 97 97 97 96 96 96 96 96 97 98 100 101 103 104 105 106 108 109 110
78 78 78 79 79 80 80 80 80 81 81 80 80 80 80 81 83 84 85 86 88 89 90 91 91 92 91 91 90 90 91 91 91 92 93 93 94 94 95 96 96 96 96 96 96 96 96 96 95 95 95 95 95 97 98 100 101 102 103 104 106 107 108
76 77 77 77 78 78 78 79 79 79 79 79 78 78 78 79 80 82 83 84 85 86 87 88 89 90 90 89 89 89 89 89 89 89 90 91 91 92 93 93 94 94 94 95 95 96 95 95 95 94 94 94 94 95 96 97 99 100 101 102 104 105 107
74 75 75 75 76 76 77 77 77 77 77 77 77 77 76 76 78 79 80 81 83 84 85 86 87 88 88 88 87 87 88 87 87 87 88 88 89 89 90 91 92 92 93 93 94 94 94 95 95 94 94 93 93 94 95 96 97 98 99 100 102 103 105
71 72 72 73 74 75 75 75 75 75 75 75 76 76 75 75 76 77 78 79 80 81 82 84 86 87 87 87 87 87 87 87 86 86 86 87 87 87 88 89 90 90 91 92 92 93 93 94 94 94 94 93 93 93 94 95 95 96 97 99 100 101 102
68 69 69 70 71 72 72 73 73 72 73 73 74 74 74 74 75 76 76 77 78 79 80 82 84 85 86 86 86 86 86 86 86 86 85 86 86 86 86 86 87 88 89 90 90 91 92 93 93 94 94 93 93 93 94 94 94 95 96 97 98 99 100
66 66 66 67 68 69 69 70 70 70 70 71 72 72 72 73 73 74 75 75 76 77 78 80 81 83 84 84 85 85 86 86 86 86 85 85 85 85 85 85 86 86 86 87 88 89 90 91 91 92 93 94 94 93 93 93 94 94 95 95 96 97 98
64 64 64 65 65 66 67 67 67 67 67 68 69 70 70 71 71 72 73 73 74 74 76 77 79 80 81 82 83 84 84 85 85 85 85 85 84 84 84 85 85 85 85 86 86 87 88 89 90 91 92 93 93 93 93 93 93 93 94 94 95 96 97
63 63 62 63 63 63 64 65 65 64 64 65 66 67 68 68 69 69 70 70 71 72 74 75 76 77 78 79 80 81 82 83 84 85 85 84 84 84 84 84 84 85 85 85 86 87 87 87 88 89 90 91 92 93 93 93 93 93 93 93 93 94 95
59 60 61 62 62 62 62 62 63 63 63 62 63 64 65 66 67 67 68 68 68 70 72 73 74 75 76 76 77 79 80 81 82 83 84 84 84 84 83 84 84 84 84 85 85 86 86 87 87 88 89 90 91 92 93 93 93 93 93 92 92 93 94
56 57 58 59 60 61 60 60 60 60 60 60 60 61 62 63 64 65 66 66 66 68 70 71 72 73 73 74 75 76 77 78 79 80 81 82 82 83 83 83 83 84 84 85 85 85 85 86 87 87 88 89 90 91 91 92 92 92 92 92 92 92 93
53 54 55 56 57 58 59 59 58 57 56 56 57 58 59 61 62 63 63 63 64 66 68 70 70 70 71 72 73 74 74 75 76 78 79 80 81 81 81 81 82 82 84 84 84 84 84 85 86 86 87 88 89 90 90 91 92 92 92 91 91 91 91
50 51 52 53 53 54 56 57 56 55 54 54 54 55 57 59 60 61 60 61 62 64 65 67 68 69 70 70 71 72 72 73 74 75 76 77 78 79 79 79 80 80 82 83 84 84 84 84 84 85 86 86 87 88 89 90 91 91 91 91 91 91 91
45 46 48 49 50 51 52 53 54 54 54 53 52 52 54 55 57 57 58 58 59 61 63 64 65 66 67 68 68 69 70 71 72 72 73 75 76 77 78 78 78 78 79 81 82 82 83 83 83 83 84 85 86 87 87 88 89 89 90 90 90 90 90
42 43 44 45 46 47 49 50 51 52 52 52 51 51 51 52 53 54 55 56 57 58 60 62 63 63 64 65 66 67 68 69 69 70 71 72 73 75 76 76 76 77 77 78 79 80 80 80 81 81 82 82 83 85 86 86 87 88 88 89 89 89 89
Wind_Direction
267 267 267 267 267 267 267 267 267 267 267 267 267 267 267 267 267 267 268 268 268 268 267 267 267 267 267 267 267 267 267 267 267 267 267 267 267 267 267 268 268 267 267 267 266 266 266 265 265 265 264 264 264 264 264 263 263 262 262 262 262 262 262
268 268 268 268 268 268 268 268 268 268 268 268 268 268 268 268 268 268 268 268 268 268 268 268 268 268 268 267 267 267 267 267 268 268 268 268 268 268 268 268 268 268 268 268 267 267 267 267 266 266 266 265 265 265 264 264 263 263 262 261 261 261 261
269 269 269 269 269 269 269 268 268 268 268 268 268 268 268 268 268 267 267 267 267 268 268 268 268 268 268 268 267 267 267 267 267 267 267 267 268 268 268 268 268 268 268 268 267 267 267 267 267 267 267 267 266 266 266 265 264 263 262 262 261 260 259
269 269 269 269 269 269 269 269 269 269 269 268 268 268 268 268 267 267 267 267 266 266 267 267 267 267 267 267 267 267 267 267 267 267 267 267 267 267 267 267 267 267 267 267 267 267 267 267 267 267 267 267 267 266 266 266 265 265 264 263 262 260 259
269 269 269 269 269 269 269 269 269 269 269 269 269 269 268 268 268 268 267 267 267 266 266 266 266 266 266 266 266 266 266 266 266 266 266 266 266 266 266 266 266 266 266 266 266 266 266 266 266 266 266 266 266 266 266 265 265 265 264 264 263 262 261
269 269 269 269 269 268 269 269 269 269 269 269 269 268 268 268 268 268 268 267 267 267 267 266 266 266 266 266 266 266 266 266 266 266 265 265 265 265 265 265 265 265 265 265 265 265 265 265 265 265 265 265 265 265 265 264 264 264 264 264 263 262 262
269 269 269 269 268 268 268 268 268 268 268 268 268 268 268 268 267 267 267 267 267 267 267 266 266 266 266 266 266 266 266 266 266 266 265 265 265 265 264 264 264 265 265 265 265 265 265 265 265 265 265 264 264 264 264 264 263 263 263 263 263 262 262
269 269 269 269 268 268 268 267 267 267 267 267 267 267 267 267 267 267 266 266 266 266 266 266 266 265 265 266 265 265 265 265 265 266 266 265 265 265 265 265 265 265 265 265 265 265 264 264 264 264 264 264 264 263 263 263 263 262 262 262 262 262 261
270 269 269 269 268 268 268 267 267 267 267 266 266 266 266 266 266 266 266 266 266 265 265 265 265 265 264 264 264 264 264 264 265 265 265 265 265 265 265 265 265 265 265 265 265 265 265 265 264 264 264 264 264 263 263 263 262 262 262 261 261 261 261
270 269 269 269 268 268 268 267 267 267 266 266 266 266 265 265 265 265 265 265 265 265 265 265 264 264 264 264 264 263 263 263 264 264 264 264 264 264 264 264 264 264 264 265 265 264 264 264 264 264 264 264 263 263 263 263 262 262 262 261 261 261 260
270 270 269 269 269 268 268 267 267 267 266 266 266 265 265 265 265 265 265 264 264 264 264 264 264 264 264 263 263 263 263 263 263 263 263 263 263 264 264 264 264 264 264 264 264 264 264 264 264 263 263 263 263 263 262 262 262 262 261 261 261 260 260
270 270 270 269 269 268 268 267 267 267 266 266 265 265 266 266 265 265 264 264 264 264 264 264 264 263 263 263 263 263 263 263 263 263 263 263 263 263 263 263 264 264 264 264 264 264 263 263 263 262 262 262 262 262 262 261 261 261 260 260 260 260 259
271 270 270 270 269 269 268 268 267 267 266 266 266 265 265 266 265 265 264 264 264 264 264 264 263 263 263 263 263 263 262 262 262 262 262 263 263 263 263 263 263 263 263 263 263 263 263 263 262 262 261 261 261 261 261 260 260 260 259 259 259 259 258
271 270 270 270 269 269 269 268 268 267 267 266 266 266 265 266 266 265 265 264 264 263 263 263 263 263 263 263 263 263 262 262 262 262 262 262 262 262 263 263 263 263 263 262 262 262 262 261 261 261 260 260 260 260 259 259 259 259 258 258 258 258 257
271 270 270 270 269 269 269 268 268 267 267 266 266 266 266 266 266 266 265 265 264 263 263 263 263 263 263 263 263 262 262 262 263 262 262 262 262 262 262 262 262 262 262 262 261 261 261 260 260 259 259 259 259 259 259 258 258 258 258 257 257 257 257
272 271 270 270 269 269 268 268 268 267 267 266 266 266 265 265 266 266 266 265 265 264 263 263 263 263 263 263 263 262 262 262 263 263 263 263 263 263 263 262 262 262 261 261 260 260 260 259 259 258 258 258 258 258 258 257 257 257 256 256 256 256 256
272 272 271 270 270 269 269 268 268 267 267 267 266 266 265 265 265 266 266 266 265 265 264 263 263 263 263 263 263 262 262 262 263 263 263 263 263 263 263 263 262 262 261 261 260 260 260 259 259 258 257 257 257 256 256 256 257 256 256 255 255 255 255
272 272 271 271 270 270 269 269 268 268 267 267 266 266 265 265 265 265 265 266 265 265 265 264 263 263 263 263 263 263 262 262 263 263 263 263 263 263 263 263 262 262 261 261 260 260 260 259 259 258 257 256 256 256 255 255 256 256 256 255 255 254 254
273 272 272 271 271 270 270 269 269 268 267 267 267 266 266 265 264 264 265 265 265 265 265 264 264 263 263 263 263 263 263 263 263 263 263 263 263 263 263 263 263 262 262 261 261 260 260 259 259 258 257 257 256 255 255 255 255 255 255 255 254 254 253
273 272 272 272 271 271 270 270 269 269 268 267 267 266 266 265 265 264 264 265 265 265 265 265 264 263 263 263 263 263 263 263 263 263 263 263 263 263 263 263 263 262 262 262 261 260 259 259 258 258 257 257 256 256 255 255 254 254 254 255 255 254 253
274 273 273 272 271 271 270 270 269 269 268 268 267 266 266 265 265 264 264 264 264 265 265 265 265 264 263 263 263 263 263 263 263 262 262 262 262 263 263 263 263 263 262 262 262 261 260 259 258 258 257 257 256 256 255 254 254 254 254 254 254 254 254
274 274 273 273 272 272 271 270 270 269 269 268 267 266 266 265 265 265 265 264 265 265 265 266 265 265 264 263 262 262 262 263 262 262 262 262 262 262 262 263 263 263 263 262 262 261 261 260 258 257 257 257 256 256 255 255 254 254 254 254 254 254 254
275 274 273 273 273 272 272 271 270 270 269 268 267 266 266 265 265 265 265 265 265 265 266 266 266 265 265 264 264 263 263 262 262 262 262 262 262 262 262 262 263 263 263 263 262 262 261 261 260 258 257 257 256 256 255 255 255 254 254 254 254 254 254
276 275 274 274 273 273 272 272 271 270 270 269 268 267 266 266 265 265 265 265 265 265 266 266 266 266 266 265 265 264 264 263 263 262 262 262 262 262 262 262 262 262 262 262 262 262 262 261 260 259 258 257 256 256 255 255 255 255 254 254 254 254 254
276 276 275 274 274 273 273 272 272 271 271 270 269 268 267 266 265 265 265 265 264 265 265 265 266 266 266 266 266 265 265 264 263 263 262 261 261 261 261 261 262 262 262 262 262 262 262 262 261 260 259 258 257 256 256 255 255 254 254 254 254 254 255
277 276 276 275 274 274 273 273 272 272 271 271 270 269 268 267 266 265 264 264 264 264 264 264 265 265 266 266 266 265 265 265 264 263 263 262 261 261 260 260 260 261 261 261 261 261 261 261 261 261 260 259 258 257 256 255 255 254 254 254 254 254 254
277 277 276 275 275 274 274 273 273 272 272 271 270 270 269 268 267 266 264 264 263 263 263 263 263 264 264 265 265 265 265 265 264 264 263 263 262 262 261 260 260 260 260 260 260 260 260 261 261 261 260 260 259 258 257 256 256 255 254 254 254 254 254
278 277 276 275 275 274 274 273 273 272 272 271 271 270 269 268 268 267 266 265 264 263 263 262 262 263 263 264 264 265 265 265 264 264 264 263 263 263 262 262 261 260 260 260 260 260 260 260 260 260 260 260 259 258 258 257 256 255 255 254 254 254 253
279 278 277 276 275 274 274 273 273 272 272 272 271 271 270 270 269 268 268 267 266 266 265 264 263 263 263 263 264 264 264 265 264 264 264 264 263 263 262 262 261 261 261 260 260 259 259 259 259 259 259 260 260 259 258 258 257 256 255 254 254 254 254
280 279 278 277 276 275 274 274 273 272 272 271 271 271 271 270 270 269 269 268 268 267 266 266 265 264 264 263 263 263 263 264 264 264 264 263 263 263 262 262 261 261 261 260 260 260 259 259 259 259 259 259 259 259 259 259 258 257 256 255 254 254 254
280 280 279 278 277 276 275 275 274 274 273 272 271 271 271 271 270 270 269 268 268 267 266 266 266 265 264 264 263 263 263 263 263 264 264 263 263 263 262 262 262 261 260 260 260 259 259 259 259 259 259 259 259 259 259 259 259 258 257 257 256 255 254
280 280 280 279 279 278 277 275 275 275 275 274 273 273 272 271 271 270 269 268 268 267 266 266 265 265 265 264 264 264 264 263 263 264 264 264 263 263 263 262 262 262 261 260 260 259 259 259 259 258 258 258 259 259 259 259 259 259 258 258 257 256 256
282 280 280 279 279 279 279 278 277 276 275 275 275 274 273 271 270 270 269 269 268 268 267 267 266 266 265 265 264 264 264 263 263 263 263 263 263 263 263 262 262 262 262 261 260 260 259 258 258 258 258 258 258 258 258 259 259 259 259 258 258 257 257
282 282 281 280 280 279 279 279 279 278 276 274 273 273 272 272 271 271 271 271 270 269 269 268 268 267 267 266 266 265 264 264 263 263 263 263 263 263 263 262 262 262 262 262 261 260 260 259 258 258 257 257 257 257 258 258 258 259 259 259 259 258 258
283 282 282 281 281 281 280 280 280 279 278 276 275 273 272 272 272 272 271 271 270 270 269 269 268 268 268 267 267 266 266 265 265 264 264 264 264 264 263 263 262 261 261 261 261 261 261 260 259 259 258 258 258 257 257 257 257 258 258 258 258 258 258
286 285 284 283 282 282 281 281 280 280 280 279 278 276 275 273 272 272 271 270 269 269 269 269 268 268 268 267 267 267 266 266 265 265 264 264 264 264 264 263 263 262 262 261 261 262 261 261 261 260 260 259 259 258 258 257 257 257 257 257 257 257 257
Height
10201 10201 10201 10202 10202 10203 10204 10205 10206 10207 10207 10208 10208 10209 10210 10212 10213 10214 10215 10216 10218 10219 10220 10222 10224 10225 10227 10230 10231 10231 10232 10234 10236 10239 10241 10243 10244 10245 10247 10248 10252 10257 10263 10268 10271 10274 10276 10280 10283 10285 10287 10290 10293 10296 10300 10303 10307 10310 10313 10314 10315 10317 10320
10179 10180 10180 10180 10181 10181 10182 10183 10184 10185 10186 10186 10187 10188 10189 10191 10193 10195 10196 10196 10197 10198 10199 10200 10202 10204 10206 10209 10211 10211 10211 10213 10216 10219 10221 10223 10224 10226 10227 10229 10232 10236 10241 10245 10249 10253 10256 10260 10263 10265 10268 10272 10274 10278 10282 10285 10288 10291 10295 10298 10301 10302 10303
10157 10157 10158 10159 10159 10159 10160 10161 10162 10162 10164 10165 10166 10166 10168 10169 10171 10173 10175 10176 10177 10178 10178 10179 10180 10182 10184 10187 10190 10191 10191 10193 10195 10198 10201 10202 10203 10205 10207 10209 10211 10214 10219 10223 10227 10231 10235 10240 10244 10245 10248 10252 10255 10258 10262 10264 10267 10271 10275 10279 10283 10286 10288
10135 10135 10135 10136 10137 10137 10137 10138 10139 10140 10140 10141 10143 10144 10145 10146 10148 10150 10152 10154 10156 10157 10158 10158 10158 10161 10163 10165 10167 10169 10170 10172 10174 10177 10180 10182 10183 10184 10185 10187 10190 10193 10197 10201 10205 10209 10214 10219 10224 10226 10229 10232 10235 10238 10241 10244 10246 10249 10253 10257 10262 10266 10270
10113 10112 10113 10113 10114 10114 10114 10114 10115 10116 10117 10118 10119 10120 10121 10122 10123 10125 10127 10130 10132 10134 10135 10136 10137 10138 10141 10144 10145 10146 10148 10150 10152 10154 10157 10160 10163 10164 10165 10166 10168 10171 10174 10178 10183 10187 10192 10197 10202 10205 10208 10212 10214 10217 10220 10223 10225 10227 10230 10234 10239 10244 10249
10090 10090 10090 10091 10092 10092 10092 10092 10092 10093 10094 10095 10095 10096 10097 10098 10099 10100 10102 10104 10107 10110 10112 10113 10114 10116 10119 10121 10123 10124 10125 10127 10129 10131 10133 10137 10141 10143 10145 10145 10147 10149 10152 10156 10160 10165 10170 10175 10180 10184 10186 10189 10192 10196 10199 10201 10204 10206 10208 10211 10217 10222 10226
10067 10067 10067 10068 10069 10070 10070 10070 10070 10071 10072 10072 10073 10074 10074 10074 10075 10077 10079 10080 10083 10086 10088 10090 10091 10093 10096 10098 10100 10101 10102 10103 10105 10107 10109 10113 10117 10120 10122 10124 10126 10128 10131 10134 10138 10143 10149 10152 10158 10163 10163 10165 10171 10175 10177 10179 10181 10184 10188 10191 10195 10200 10203
10045 10045 10045 10045 10046 10047 10048 10048 10048 10049 10050 10051 10052 10052 10052 10052 10053 10054 10056 10058 10060 10063 10065 10067 10069 10071 10074 10076 10077 10078 10079 10081 10083 10084 10086 10089 10092 10096 10099 10101 10104 10106 10109 10112 10117 10122 10127 10130 10136 10140 10140 10143 10148 10151 10154 10156 10158 10163 10167 10170 10174 10178 10181
10024 10023 10023 10024 10025 10025 10026 10027 10028 10028 10028 10030 10031 10031 10029 10030 10031 10032 10034 10035 10037 10040 10043 10045 10047 10050 10052 10054 10055 10057 10058 10059 10061 10062 10064 10066 10069 10072 10075 10078 10081 10084 10087 10090 10095 10100 10104 10107 10112 10116 10118 10120 10123 10127 10130 10133 10136 10140 10145 10148 10151 10156 10159
10005 10004 10003 10003 10004 10005 10006 10006 10007 10008 10008 10010 10011 10010 10009 10009 10010 10011 10012 10013 10016 10018 10021 10023 10025 10028 10030 10032 10034 10035 10036 10038 10040 10042 10043 10045 10047 10049 10053 10056 10059 10063 10066 10069 10073 10077 10082 10085 10088 10092 10096 10097 10100 10103 10106 10110 10114 10117 10121 10124 10128 10134 10139
9985 9985 9984 9984 9984 9985 9986 9987 9988 9988 9989 9990 9992 9992 9989 9988 9990 9991 9992 9993 9996 9998 10000 10002 10004 10007 10009 10011 10012 10014 10015 10017 10019 10021 10022 10024 10026 10028 10031 10035 10039 10042 10045 10048 10051 10055 10059 10062 10065 10070 10073 10074 10076 10079 10082 10086 10091 10094 10097 10101 10104 10111 10116
9967 9966 9966 9965 9965 9965 9966 9968 9969 9970 9970 9971 9973 9975 9973 9968 9968 9971 9972 9974 9977 9979 9981 9982 9983 9986 9988 9990 9992 9994 9995 9997 9999 10001 10002 10003 10006 10008 10011 10015 10019 10022 10025 10028 10030 10034 10037 10040 10043 10048 10051 10052 10053 10056 10059 10063 10068 10070 10074 10078 10081 10086 10091
9949 9948 9947 9947 9947 9947 9947 9948 9950 9951 9952 9953 9953 9958 9959 9951 9945 9948 9953 9956 9959 9961 9962 9963 9964 9966 9968 9970 9973 9974 9975 9977 9980 9982 9983 9984 9986 9989 9992 9996 9999 10002 10005 10008 10011 10013 10016 10019 10021 10025 10029 10031 10031 10034 10037 10041 10045 10048 10052 10056 10059 10063 10067
9932 9930 9930 9930 9929 9929 9929 9930 9931 9932 9934 9935 9935 9939 9944 9936 9925 9927 9934 9938 9940 9942 9944 9945 9946 9946 9948 9951 9953 9955 9956 9957 9960 9963 9965 9965 9966 9969 9974 9977 9979 9983 9986 9988 9991 9993 9995 9998 10000 10003 10007 10010 10011 10013 10016 10020 10023 10026 10031 10035 10038 10041 10044
9915 9913 9913 9912 9912 9912 9911 9912 9914 9915 9916 9918 9918 9921 9927 9921 9909 9910 9916 9917 9919 9923 9927 9929 9928 9928 9930 9932 9934 9936 9938 9938 9941 9944 9945 9946 9947 9951 9955 9958 9960 9963 9966 9969 9971 9972 9973 9977 9981 9984 9987 9990 9992 9994 9996 9999 10002 10005 10010 10014 10018 10021 10023
9898 9896 9895 9895 9895 9895 9894 9895 9897 9898 9899 9901 9903 9905 9909 9904 9896 9895 9897 9897 9899 9904 9909 9911 9912 9912 9913 9915 9916 9918 9920 9922 9924 9925 9927 9929 9931 9933 9936 9939 9941 9943 9946 9949 9951 9952 9953 9958 9963 9967 9969 9971 9973 9976 9977 9979 9982 9985 9989 9995 9998 10000 10002
9882 9880 9879 9878 9878 9879 9879 9878 9880 9883 9883 9884 9886 9890 9892 9889 9884 9881 9880 9879 9881 9885 9889 9893 9896 9897 9897 9897 9899 9900 9902 9905 9907 9908 9910 9912 9914 9916 9917 9919 9922 9924 9925 9928 9933 9935 9937 9941 9945 9948 9951 9953 9955 9957 9959 9961 9963 9965 9969 9974 9979 9981 9983
9866 9864 9863 9862 9862 9863 9863 9862 9864 9867 9868 9869 9871 9874 9876 9875 9871 9867 9865 9864 9864 9867 9871 9874 9878 9882 9882 9880 9881 9883 9886 9888 9890 9893 9895 9896 9897 9897 9897 9900 9903 9904 9905 9910 9915 9919 9921 9923 9925 9928 9932 9935 9937 9939 9941 9943 9945 9946 9949 9954 9958 9961 9964
9851 9849 9848 9847 9847 9847 9847 9847 9847 9850 9854 9854 9855 9858 9860 9860 9857 9854 9853 9851 9848 9849 9854 9857 9861 9864 9866 9865 9865 9866 9869 9872 9874 9877 9880 9880 9879 9878 9880 9883 9885 9884 9887 9893 9898 9901 9903 9905 9907 9910 9913 9916 9919 9921 9924 9926 9928 9928 9929 9933 9938 9942 9945
9837 9836 9834 9833 9833 9833 9833 9833 9832 9834 9838 9840 9841 9843 9845 9845 9842 9840 9840 9838 9834 9833 9836 9841 9845 9848 9850 9850 9850 9850 9853 9856 9858 9862 9865 9862 9859 9862 9866 9866 9864 9865 9870 9876 9879 9882 9885 9887 9890 9892 9895 9898 9900 9903 9906 9908 9909 9910 9912 9915 9918 9922 9926
9823 9822 9820 9819 9819 9819 9819 9819 9819 9819 9822 9825 9827 9828 9830 9829 9827 9826 9826 9825 9822 9820 9820 9823 9827 9831 9833 9835 9836 9836 9837 9840 9843 9847 9848 9844 9844 9849 9851 9848 9846 9849 9855 9859 9860 9862 9866 9870 9873 9875 9878 9880 9883 9885 9888 9889 9890 9894 9896 9899 9901 9903 9906
9810 9809 9807 9805 9805 9804 9804 9805 9805 9805 9806 9810 9812 9814 9814 9814 9813 9812 9812 9811 9809 9808 9807 9808 9810 9813 9815 9819 9821 9822 9823 9824 9827 9830 9831 9830 9832 9835 9834 9832 9833 9835 9838 9841 9842 9844 9847 9851 9855 9859 9861 9864 9866 9868 9869 9870 9873 9878 9880 9882 9885 9886 9888
9796 9795 9794 9792 9791 9791 9791 9791 9791 9791 9792 9794 9797 9799 9800 9800 9799 9799 9799 9798 9797 9796 9796 9794 9794 9795 9798 9802 9805 9807 9809 9810 9812 9814 9815 9816 9818 9819 9819 9819 9820 9821 9823 9824 9825 9827 9829 9832 9836 9841 9844 9847 9850 9851 9852 9854 9857 9861 9864 9866 9867 9869 9872
9782 9782 9781 9780 9778 9777 9777 9777 9777 9778 9779 9780 9782 9784 9787 9788 9787 9786 9786 9785 9784 9784 9784 9782 9780 9780 9782 9786 9789 9791 9793 9795 9797 9798 9800 9802 9803 9804 9805 9805 9806 9807 9809 9810 9809 9810 9813 9815 9818 9822 9826 9830 9832 9833 9835 9838 9841 9844 9846 9848 9850 9852 9855
9770 9769 9768 9767 9766 9764 9764 9764 9764 9764 9766 9767 9767 9769 9772 9774 9774 9773 9773 9773 9772 9772 9772 9771 9768 9766 9767 9770 9773 9774 9776 9779 9781 9782 9784 9786 9788 9790 9790 9790 9791 9793 9794 9795 9795 9796 9797 9798 9800 9803 9807 9811 9814 9816 9819 9821 9824 9827 9829 9831 9833 9835 9837
9758 9757 9756 9755 9753 9752 9751 9751 9752 9752 9753 9753 9754 9754 9756 9758 9759 9759 9760 9759 9759 9759 9760 9759 9756 9754 9754 9755 9757 9758 9760 9762 9764 9766 9767 9769 9771 9774 9775 9776 9777 9778 9779 9780 9780 9782 9783 9783 9783 9786 9790 9793 9796 9799 9801 9803 9807 9811 9813 9814 9816 9819 9821
9746 9745 9744 9742 9740 9740 9739 9738 9739 9740 9741 9740 9740 9740 9742 9743 9743 9744 9745 9746 9746 9746 9747 9746 9743 9742 9742 9742 9743 9744 9745 9746 9748 9750 9752 9753 9755 9757 9759 9761 9762 9764 9765 9765 9766 9767 9768 9768 9768 9770 9772 9775 9779 9781 9783 9786 9790 9794 9795 9797 9800 9804 9806
9734 9733 9732 9730 9728 9728 9727 9726 9727 9728 9728 9727 9727 9727 9728 9729 9730 9730 9731 9732 9733 9734 9734 9733 9731 9730 9731 9731 9731 9731 9732 9732 9733 9735 9737 9739 9741 9742 9744 9745 9747 9749 9750 9751 9752 9753 9753 9754 9755 9756 9756 9758 9761 9764 9766 9769 9773 9776 9778 9781 9784 9787 9789
9722 9721 9721 9718 9717 9716 9715 9714 9715 9717 9716 9715 9715 9715 9715 9716 9716 9717 9718 9718 9720 9721 9720 9719 9719 9719 9720 9720 9720 9720 9719 9719 9719 9720 9722 9724 9726 9728 9729 9730 9732 9733 9735 9736 9737 9738 9738 9739 9741 9741 9741 9742 9744 9746 9748 9752 9755 9758 9762 9765 9768 9770 9773
9710 9709 9709 9707 9706 9706 9704 9703 9703 9705 9705 9705 9704 9703 9704 9704 9703 9704 9705 9706 9707 9707 9705 9704 9704 9706 9707 9707 9707 9707 9707 9706 9706 9706 9707 9709 9711 9713 9714 9715 9717 9718 9720 9721 9722 9723 9724 9725 9726 9726 9727 9728 9729 9730 9731 9734 9737 9741 9745 9749 9752 9754 9757
9702 9699 9698 9696 9695 9695 9695 9693 9692 9693 9694 9695 9694 9693 9693 9692 9691 9691 9692 9693 9694 9693 9691 9690 9690 9691 9691 9692 9693 9693 9693 9694 9693 9692 9692 9694 9695 9697 9698 9700 9701 9703 9704 9706 9707 9708 9709 9710 9711 9712 9712 9713 9714 9715 9716 9718 9720 9724 9728 9731 9735 9738 9740
9694 9691 9689 9686 9685 9684 9683 9684 9684 9684 9684 9685 9685 9684 9683 9682 9680 9679 9679 9680 9681 9679 9677 9676 9677 9677 9677 9678 9679 9679 9680 9680 9680 9679 9679 9679 9680 9682 9683 9685 9686 9687 9688 9689 9691 9693 9695 9695 9696 9697 9698 9699 9699 9700 9701 9703 9705 9707 9711 9715 9718 9721 9724
9684 9682 9680 9678 9676 9674 9672 9672 9674 9676 9676 9676 9675 9674 9672 9670 9668 9667 9668 9669 9669 9667 9664 9664 9664 9665 9664 9665 9665 9665 9666 9667 9667 9666 9666 9666 9666 9667 9668 9670 9672 9672 9672 9672 9674 9677 9679 9680 9681 9683 9684 9684 9685 9686 9687 9688 9689 9692 9695 9698 9702 9704 9707
9676 9673 9671 9670 9668 9666 9664 9662 9662 9664 9665 9665 9664 9663 9662 9659 9658 9658 9659 9660 9658 9656 9654 9653 9653 9653 9652 9652 9652 9653 9653 9654 9654 9654 9654 9653 9653 9653 9654 9656 9658 9658 9658 9657 9658 9661 9663 9664 9666 9668 9670 9671 9671 9672 9673 9674 9675 9677 9680 9683 9685 9688 9691
9670 9667 9664 9662 9660 9658 9656 9655 9653 9652 9652 9653 9654 9653 9652 9651 9649 9649 9650 9649 9647 9645 9643 9642 9641 9641 9640 9640 9640 9640 9640 9641 9641 9642 9642 9641 9640 9640 9640 9642 9643 9645 9645 9644 9644 9645 9647 9650 9652 9654 9656 9657 9658 9659 9660 9661 9662 9664 9666 9668 9670 9673 9675
9663 9660 9657 9655 9653 9651 9649 9647 9645 9644 9643 9643 9643 9643 9642 9641 9640 9639 9639 9638 9637 9635 9632 9630 9629 9629 9629 9629 9628 9628 9627 9628 9628 9628 9629 9629 9628 9628 9627 9628 9629 9630 9632 9632 9632 9633 9634 9636 9638 9640 9642 9643 9644 9645 9646 9647 9648 9650 9652 9653 9656 9658 9660